Location: Killam
(52.7910°N, 111.8608°W)
Time: 13:49:35
(UTC+00:00)

BlueWalker 3 - Pass Details

Date: 29 January 2026
Orbit: 450 x 461 km, 53.2° (Epoch: 11 February)

Event Time Altitude Azimuth Distance (km) Brightness Sun altitude
Rises 03:29:08 0° 280° (W) 2,459 6.6 -30.5°
Reaches altitude 10° 03:31:16 10° 280° (W) 1,585 5.4 -30.8°
Enters shadow 03:32:05 16° 280° (W) 1,261 4.7 -31.0°
